Tracking 25710 objects as of 5-Jul-2022
HD Live streaming from Space Station
objects crossing your sky now

FENGYUN 1C DEB

Track FENGYUN 1C DEB now!
10-day predictions


NORAD ID: 32422
Int'l Code: 1999-025DAJ
Perigee: 694.0 km
Apogee: 1,140.8 km
Inclination: 97.9 °
Period: 103.2 minutes
Semi major axis: 7288 km
RCS: 0.0061 m2 (small)
Launch date: May 10, 1999
Source: People's Republic of China (PRC)
Launch site: Taiyaun Space Center, China (TSC)

Note: This is SATELLITE DEBRIS
aabbcc
Your satellite tracking list
Your tracking list is empty




NASA's NSSDC Master Catalog

Two Line Element Set (TLE):
1 32422U 99025DAJ 22184.08485789  .00000058  00000-0  48059-4 0  9997
2 32422  97.8520 124.2650 0306470 271.9999  84.6101 13.95256485455666
Source of the keplerian elements: AFSPC